Time,TemperatureF,DewpointF,PressureIn,WindDirection,WindDirectionDegrees,WindSpeedMPH,WindSpeedGustMPH,Humidity,HourlyPrecipIn,Conditions,Clouds,dailyrainin,SoftwareType,DateUTC
2013-07-19 00:02:00,75.0,72.0,30.05,NNE,18,1.0,6.0,91,0.00,,,0.01,,2013-07-19 05:02:00,
2013-07-19 00:11:00,74.0,72.0,30.04,North,3,0.0,0.0,92,0.00,,,0.01,,2013-07-19 05:11:00,
2013-07-19 00:32:00,74.0,72.0,30.04,North,3,0.0,0.0,93,0.00,,,0.01,,2013-07-19 05:32:00,
2013-07-19 00:43:00,74.0,72.0,30.04,North,3,0.0,0.0,94,0.00,,,0.01,,2013-07-19 05:43:00,
2013-07-19 00:53:00,74.0,72.0,30.04,North,3,0.0,0.0,94,0.00,,,0.01,,2013-07-19 05:53:00,
2013-07-19 01:01:00,73.0,71.0,30.03,North,3,0.0,0.0,94,0.00,,,0.01,,2013-07-19 06:01:00,
2013-07-19 01:11:00,73.0,71.0,30.03,North,3,0.0,0.0,94,0.00,,,0.01,,2013-07-19 06:11:00,
2013-07-19 01:22:00,73.0,71.0,30.03,North,3,0.0,0.0,94,0.00,,,0.01,,2013-07-19 06:22:00,
2013-07-19 01:33:00,73.0,71.0,30.03,North,3,0.0,0.0,94,0.00,,,0.01,,2013-07-19 06:33:00,
2013-07-19 01:43:00,73.0,71.0,30.03,North,3,0.0,0.0,94,0.00,,,0.01,,2013-07-19 06:43:00,
2013-07-19 02:01:00,73.0,71.0,30.01,North,3,0.0,0.0,95,0.00,,,0.01,,2013-07-19 07:01:00,
2013-07-19 02:12:00,73.0,72.0,30.01,North,3,0.0,0.0,96,0.00,,,0.01,,2013-07-19 07:12:00,
2013-07-19 02:22:00,73.0,72.0,30.01,North,3,0.0,0.0,96,0.00,,,0.01,,2013-07-19 07:22:00,
2013-07-19 02:32:00,73.0,72.0,30.01,North,3,0.0,0.0,96,0.00,,,0.01,,2013-07-19 07:32:00,
2013-07-19 02:43:00,72.0,71.0,30.01,North,3,0.0,0.0,96,0.00,,,0.01,,2013-07-19 07:43:00,
2013-07-19 03:01:00,72.0,71.0,30.01,North,3,0.0,0.0,96,0.00,,,0.01,,2013-07-19 08:01:00,
2013-07-19 03:11:00,72.0,71.0,30.01,North,3,0.0,0.0,96,0.00,,,0.01,,2013-07-19 08:11:00,
2013-07-19 03:22:00,72.0,71.0,30.01,North,3,0.0,0.0,96,0.00,,,0.01,,2013-07-19 08:22:00,
2013-07-19 03:32:00,72.0,71.0,30.01,North,3,0.0,0.0,96,0.00,,,0.01,,2013-07-19 08:32:00,
2013-07-19 03:43:00,71.0,70.0,30.01,North,3,0.0,0.0,97,0.00,,,0.01,,2013-07-19 08:43:00,
2013-07-19 04:02:00,71.0,70.0,30.01,North,3,0.0,0.0,97,0.00,,,0.01,,2013-07-19 09:02:00,
2013-07-19 04:11:00,71.0,70.0,30.01,North,3,0.0,0.0,97,0.00,,,0.01,,2013-07-19 09:11:00,
2013-07-19 04:22:00,71.0,70.0,30.01,North,3,0.0,0.0,97,0.00,,,0.01,,2013-07-19 09:22:00,
2013-07-19 04:32:00,71.0,70.0,30.01,North,3,0.0,0.0,97,0.00,,,0.01,,2013-07-19 09:32:00,
2013-07-19 04:43:00,71.0,70.0,30.01,North,3,0.0,0.0,97,0.00,,,0.01,,2013-07-19 09:43:00,
2013-07-19 04:52:00,71.0,70.0,30.01,North,3,0.0,0.0,97,0.00,,,0.01,,2013-07-19 09:52:00,
2013-07-19 05:01:00,71.0,70.0,30.01,North,3,0.0,0.0,97,0.00,,,0.01,,2013-07-19 10:01:00,
2013-07-19 05:11:00,71.0,70.0,30.01,North,3,0.0,0.0,97,0.00,,,0.01,,2013-07-19 10:11:00,
2013-07-19 05:22:00,71.0,70.0,30.01,North,3,0.0,0.0,97,0.00,,,0.01,,2013-07-19 10:22:00,
2013-07-19 05:32:00,71.0,70.0,30.01,North,3,0.0,0.0,97,0.00,,,0.01,,2013-07-19 10:32:00,
2013-07-19 05:43:00,71.0,70.0,30.01,North,3,0.0,0.0,97,0.00,,,0.01,,2013-07-19 10:43:00,
2013-07-19 05:52:00,71.0,70.0,30.01,North,3,0.0,0.0,98,0.00,,,0.01,,2013-07-19 10:52:00,
2013-07-19 06:02:00,71.0,70.0,30.01,North,3,0.0,0.0,98,0.00,,,0.01,,2013-07-19 11:02:00,
2013-07-19 06:12:00,71.0,70.0,30.01,North,3,0.0,0.0,98,0.00,,,0.01,,2013-07-19 11:12:00,
2013-07-19 06:33:00,71.0,70.0,30.02,North,3,0.0,0.0,98,0.00,,,0.01,,2013-07-19 11:33:00,
2013-07-19 06:43:00,71.0,70.0,30.02,North,3,0.0,0.0,98,0.00,,,0.01,,2013-07-19 11:43:00,
2013-07-19 06:52:00,71.0,70.0,30.02,North,3,0.0,0.0,98,0.00,,,0.01,,2013-07-19 11:52:00,
2013-07-19 07:01:00,71.0,70.0,30.03,North,3,0.0,0.0,98,0.00,,,0.01,,2013-07-19 12:01:00,
2013-07-19 07:12:00,71.0,70.0,30.03,North,3,0.0,0.0,98,0.00,,,0.01,,2013-07-19 12:12:00,
2013-07-19 07:33:00,72.0,71.0,30.03,North,3,0.0,0.0,98,0.00,,,0.01,,2013-07-19 12:33:00,
2013-07-19 07:43:00,72.0,71.0,30.04,North,3,0.0,0.0,98,0.00,,,0.01,,2013-07-19 12:43:00,
2013-07-19 08:02:00,73.0,72.0,30.04,NNE,18,0.0,3.0,98,0.00,,,0.01,,2013-07-19 13:02:00,
2013-07-19 08:12:00,75.0,74.0,30.04,NE,51,1.0,5.0,96,0.00,,,0.01,,2013-07-19 13:12:00,
2013-07-19 08:32:00,76.0,74.0,30.04,East,91,1.0,5.0,94,0.00,,,0.01,,2013-07-19 13:32:00,
2013-07-19 08:43:00,76.0,74.0,30.04,East,91,1.0,5.0,94,0.00,,,0.01,,2013-07-19 13:43:00,
2013-07-19 09:02:00,80.0,75.0,30.03,NNE,27,2.0,5.0,86,0.00,,,0.01,,2013-07-19 14:02:00,
2013-07-19 09:11:00,80.0,75.0,30.03,North,11,0.0,3.0,85,0.00,,,0.01,,2013-07-19 14:11:00,
2013-07-19 09:33:00,81.0,75.0,30.03,SE,145,0.0,0.0,83,0.00,,,0.01,,2013-07-19 14:33:00,
2013-07-19 09:43:00,81.0,75.0,30.03,SE,145,0.0,0.0,83,0.00,,,0.01,,2013-07-19 14:43:00,
2013-07-19 09:52:00,81.0,75.0,30.03,SE,145,0.0,0.0,83,0.00,,,0.01,,2013-07-19 14:52:00,
2013-07-19 10:02:00,84.0,76.0,30.01,NNW,343,1.0,3.0,77,0.00,,,0.01,,2013-07-19 15:02:00,
2013-07-19 10:11:00,84.0,76.0,30.01,NNW,343,1.0,3.0,77,0.00,,,0.01,,2013-07-19 15:11:00,
2013-07-19 10:32:00,84.0,76.0,30.00,NNW,340,1.0,5.0,77,0.00,,,0.01,,2013-07-19 15:32:00,
2013-07-19 10:43:00,86.0,76.0,29.99,NE,40,0.0,5.0,73,0.00,,,0.01,,2013-07-19 15:43:00,
2013-07-19 10:52:00,86.0,76.0,29.99,NE,40,0.0,5.0,73,0.00,,,0.01,,2013-07-19 15:52:00,
2013-07-19 11:01:00,86.0,76.0,29.99,NE,40,0.0,5.0,73,0.00,,,0.01,,2013-07-19 16:01:00,
2013-07-19 11:11:00,89.0,76.0,29.98,NE,42,0.0,5.0,66,0.00,,,0.01,,2013-07-19 16:11:00,
2013-07-19 11:22:00,89.0,76.0,29.98,NE,42,0.0,5.0,66,0.00,,,0.01,,2013-07-19 16:22:00,
2013-07-19 11:32:00,89.0,76.0,29.97,NE,37,3.0,6.0,66,0.00,,,0.01,,2013-07-19 16:32:00,
2013-07-19 11:43:00,90.0,76.0,29.97,ESE,120,1.0,6.0,64,0.00,,,0.01,,2013-07-19 16:43:00,
2013-07-19 11:53:00,90.0,76.0,29.97,ESE,120,1.0,6.0,64,0.00,,,0.01,,2013-07-19 16:53:00,
2013-07-19 12:02:00,88.0,76.0,29.96,NE,54,0.0,5.0,67,0.00,,,0.01,,2013-07-19 17:02:00,
2013-07-19 12:12:00,88.0,76.0,29.96,NE,54,0.0,5.0,67,0.00,,,0.01,,2013-07-19 17:12:00,
2013-07-19 12:22:00,88.0,76.0,29.96,NE,54,0.0,5.0,67,0.00,,,0.01,,2013-07-19 17:22:00,
2013-07-19 12:32:00,88.0,76.0,29.96,North,8,2.0,3.0,67,0.00,,,0.01,,2013-07-19 17:32:00,
2013-07-19 12:43:00,88.0,76.0,29.96,North,8,2.0,3.0,67,0.00,,,0.01,,2013-07-19 17:43:00,
2013-07-19 13:01:00,89.0,74.0,29.95,NNE,25,0.0,8.0,62,0.00,,,0.01,,2013-07-19 18:01:00,
2013-07-19 13:11:00,89.0,74.0,29.95,NNE,25,0.0,8.0,62,0.00,,,0.01,,2013-07-19 18:11:00,
2013-07-19 13:22:00,89.0,74.0,29.95,NNE,25,0.0,8.0,62,0.00,,,0.01,,2013-07-19 18:22:00,
2013-07-19 13:32:00,93.0,72.0,29.93,East,79,0.0,3.0,50,0.00,,,0.00,,2013-07-19 18:32:00,
2013-07-19 13:42:00,95.0,75.0,29.93,NNE,31,3.0,6.0,52,0.00,,,0.00,,2013-07-19 18:42:00,
2013-07-19 14:01:00,94.0,74.0,29.92,North,5,4.0,7.0,52,0.00,,,0.00,,2013-07-19 19:01:00,
2013-07-19 14:11:00,94.0,74.0,29.92,North,5,4.0,7.0,52,0.00,,,0.00,,2013-07-19 19:11:00,
2013-07-19 14:21:00,94.0,74.0,29.92,North,5,4.0,7.0,52,0.00,,,0.00,,2013-07-19 19:21:00,
2013-07-19 14:32:00,87.0,75.0,29.91,NW,314,0.0,2.0,67,0.00,,,0.00,,2013-07-19 19:32:00,
2013-07-19 14:43:00,85.0,74.0,29.91,NW,315,2.0,5.0,70,0.00,,,0.00,,2013-07-19 19:43:00,
2013-07-19 15:01:00,86.0,75.0,29.91,NW,322,1.0,5.0,70,0.00,,,0.00,,2013-07-19 20:01:00,
2013-07-19 15:11:00,88.0,76.0,29.91,NNW,348,1.0,6.0,67,0.00,,,0.00,,2013-07-19 20:11:00,
2013-07-19 15:22:00,88.0,76.0,29.91,NNW,348,1.0,6.0,67,0.00,,,0.00,,2013-07-19 20:22:00,
2013-07-19 15:33:00,88.0,76.0,29.91,NNW,348,1.0,6.0,67,0.00,,,0.00,,2013-07-19 20:33:00,
2013-07-19 15:43:00,88.0,75.0,29.91,NNW,343,3.0,5.0,66,0.00,,,0.00,,2013-07-19 20:43:00,
2013-07-19 16:01:00,89.0,77.0,29.88,NW,311,3.0,9.0,68,0.00,,,0.00,,2013-07-19 21:01:00,
2013-07-19 16:11:00,88.0,76.0,29.89,North,352,4.0,8.0,68,0.00,,,0.00,,2013-07-19 21:11:00,
2013-07-19 16:32:00,80.0,71.0,29.91,SE,136,10.0,18.0,74,0.00,,,0.00,,2013-07-19 21:32:00,
2013-07-19 16:42:00,80.0,71.0,29.91,SE,136,10.0,18.0,74,0.00,,,0.00,,2013-07-19 21:42:00,
2013-07-19 17:11:00,74.0,73.0,29.92,North,6,0.0,1.0,96,0.10,,,0.10,,2013-07-19 22:11:00,
2013-07-19 17:21:00,74.0,73.0,29.92,North,6,0.0,1.0,96,0.10,,,0.10,,2013-07-19 22:21:00,
2013-07-19 17:32:00,74.0,73.0,29.92,North,6,0.0,1.0,96,0.10,,,0.10,,2013-07-19 22:32:00,
2013-07-19 17:42:00,79.0,77.0,29.92,North,6,0.0,0.0,95,0.09,,,0.10,,2013-07-19 22:42:00,
2013-07-19 18:01:00,83.0,75.0,29.91,North,6,0.0,1.0,78,0.01,,,0.10,,2013-07-19 23:01:00,
2013-07-19 18:11:00,83.0,75.0,29.91,North,6,0.0,1.0,78,0.01,,,0.10,,2013-07-19 23:11:00,
2013-07-19 18:21:00,83.0,75.0,29.91,North,6,0.0,1.0,78,0.01,,,0.10,,2013-07-19 23:21:00,
2013-07-19 18:33:00,82.0,77.0,29.91,North,6,0.0,0.0,85,0.00,,,0.10,,2013-07-19 23:33:00,
2013-07-19 18:43:00,81.0,76.0,29.91,North,6,0.0,0.0,84,0.00,,,0.10,,2013-07-19 23:43:00,
2013-07-19 19:01:00,81.0,76.0,29.91,North,6,0.0,0.0,86,0.00,,,0.10,,2013-07-20 00:01:00,
2013-07-19 19:11:00,81.0,76.0,29.90,North,6,0.0,0.0,86,0.00,,,0.10,,2013-07-20 00:11:00,
2013-07-19 19:32:00,81.0,76.0,29.91,North,6,0.0,0.0,84,0.00,,,0.10,,2013-07-20 00:32:00,
2013-07-19 19:43:00,81.0,76.0,29.91,North,6,0.0,0.0,86,0.00,,,0.10,,2013-07-20 00:43:00,
2013-07-19 20:01:00,80.0,76.0,29.91,North,6,0.0,0.0,87,0.00,,,0.10,,2013-07-20 01:01:00,
2013-07-19 20:11:00,80.0,76.0,29.91,North,6,0.0,0.0,88,0.00,,,0.10,,2013-07-20 01:11:00,
2013-07-19 20:22:00,80.0,76.0,29.91,North,6,0.0,0.0,88,0.00,,,0.10,,2013-07-20 01:22:00,
2013-07-19 20:32:00,79.0,76.0,29.91,North,6,0.0,0.0,90,0.00,,,0.10,,2013-07-20 01:32:00,
2013-07-19 21:02:00,77.0,75.0,29.93,North,6,0.0,0.0,93,0.00,,,0.10,,2013-07-20 02:02:00,
2013-07-19 21:11:00,77.0,75.0,29.93,North,6,0.0,0.0,94,0.00,,,0.10,,2013-07-20 02:11:00,
2013-07-19 21:22:00,77.0,75.0,29.93,North,6,0.0,0.0,94,0.00,,,0.10,,2013-07-20 02:22:00,
2013-07-19 21:33:00,76.0,74.0,29.94,North,6,0.0,0.0,95,0.00,,,0.10,,2013-07-20 02:33:00,
2013-07-19 21:43:00,76.0,74.0,29.94,North,6,0.0,0.0,95,0.00,,,0.10,,2013-07-20 02:43:00,
2013-07-19 22:02:00,76.0,74.0,29.96,North,6,0.0,0.0,95,0.00,,,0.10,,2013-07-20 03:02:00,
2013-07-19 22:11:00,76.0,74.0,29.96,North,6,0.0,0.0,95,0.00,,,0.10,,2013-07-20 03:11:00,
2013-07-19 22:32:00,76.0,75.0,29.96,North,6,0.0,0.0,96,0.00,,,0.10,,2013-07-20 03:32:00,
2013-07-19 22:44:00,76.0,75.0,29.96,North,6,0.0,0.0,96,0.00,,,0.10,,2013-07-20 03:44:00,
2013-07-19 23:02:00,76.0,75.0,29.96,North,6,0.0,0.0,96,0.00,,,0.10,,2013-07-20 04:02:00,
2013-07-19 23:12:00,76.0,75.0,29.96,North,6,0.0,0.0,96,0.00,,,0.10,,2013-07-20 04:12:00,
2013-07-19 23:33:00,75.0,74.0,29.96,North,6,0.0,0.0,96,0.00,,,0.10,,2013-07-20 04:33:00,
2013-07-19 23:44:00,75.0,74.0,29.96,North,6,0.0,0.0,96,0.00,,,0.10,,2013-07-20 04:44:00,